Location: Gombori
(14.9797°N, 2.9419°W)
Time: 10:45:09
(UTC+00:00)

Centaur D AC-28 - Pass Details

Date: 29 July 2021
Orbit: 603 x 36450 km, 27.6° (Epoch: 23 September)

Event Time Altitude Azimuth Distance (km) Brightness Sun altitude
Rises 20:15:15 0° 287° (WNW) 2,993 6.5 -21.4°
Reaches altitude 10° 20:16:58 10° 298° (WNW) 2,335 5.7 -21.8°
Maximum altitude 20:21:26 36° 8° (N) 1,993 4.2 -22.7°
Drops below altitude 10° 20:37:54 10° 72° (ENE) 8,343 6.9 -26.2°
Sets 20:59:02 0° 81° (E) 15,193 8.2 -30.6°
